Weather History for Kinloss, United Kingdom

Change the Weather History Date:

Tuesday, February 26, 2013

  Actual Average Record
Temperature  
Mean Temperature 32 °F -  
Max Temperature 44 °F 47 °F 55 °F (2003)
Min Temperature 21 °F 35 °F 21 °F (2013)
Degree Days  
Heating Degree Days 32    
Moisture  
Dew Point 26 °F    
Average Humidity 78    
Maximum Humidity 93    
Minimum Humidity 48    
Precipitation  
Precipitation 0.01 in 0.06 in - ()
Sea Level Pressure  
Sea Level Pressure 30.64 in    
Wind  
Wind Speed 3 mph ()    
Max Wind Speed 8 mph    
Max Gust Speed -    
Visibility 8.2 miles    
Events      
Averages and records for this station are not official NWS values.
T = Trace of Precipitation, MM = Missing Value Source: Averaged Metar Reports

Daily Weather History Graph

Daily Weather History Graph

Search for Another Location

Airport:

Trip Planner

Search our weather history database for the weather conditions in past years. The results will help you decide how hot, cold, wet, or windy it might be!

Date:

Astronomy

Feb. 26, 2013 Rise Set
Actual Time 7:16 AM GMT 5:39 PM GMT
Civil Twilight 6:36 AM GMT 6:18 PM GMT
Nautical Twilight 5:51 AM GMT 7:03 PM GMT
Astronomical Twilight 5:06 AM GMT 7:48 PM GMT
Moon 7:04 PM GMT (2/26) 6:53 AM GMT (2/26)
Length of Visible Light 11h 41m
Length of Day
10h 23m
Full, 100% of the Moon is Illuminated
Feb 26
Full
Mar 4
Last Quarter
Mar 11
New
Mar 19
First Quarter
Mar 27
Full

Hourly Weather History & Observations

Time (GMT) Temp. Windchill Dew Point Humidity Pressure Visibility Wind Dir Wind Speed Gust Speed Precip Events Conditions
12:50 AM 30.2 °F 25.4 °F 26.6 °F 86% 30.63 in 6.2 mi South 4.6 mph - N/A   Unknown
1:50 AM 24.8 °F - 21.2 °F 86% 30.63 in 6.2 mi WSW 2.3 mph - N/A   Unknown
2:50 AM 26 °F - 24 °F 86% 30.65 in 17 mi SSE 1.2 mph - -  
2:50 AM 26.6 °F - 23.0 °F 86% 30.63 in 6.2 mi SSE 1.2 mph - N/A   Unknown
3:50 AM 23.0 °F - 21.2 °F 93% 30.63 in 6.2 mi Calm Calm - N/A   Unknown
4:50 AM 23.0 °F - 21.2 °F 93% 30.63 in 6.2 mi SE 1.2 mph - N/A   Unknown
5:50 AM 24 °F - 21 °F 83% 30.66 in 22 mi WSW 2.3 mph - -  
5:50 AM 23.0 °F - 21.2 °F 93% 30.63 in 6.2 mi WSW 2.3 mph - N/A   Unknown
6:50 AM 21.2 °F - 19.4 °F 93% 30.66 in 6.2 mi SW 2.3 mph - N/A   Unknown
7:50 AM 24.8 °F - 23.0 °F 93% 30.66 in 6.2 mi SE 2.3 mph - N/A   Unknown
8:50 AM 27 °F - 24 °F 83% 30.67 in 14 mi SE 2.3 mph - -  
8:50 AM 26.6 °F - 24.8 °F 93% 30.66 in 6.2 mi SE 2.3 mph - N/A   Unknown
9:50 AM 33.8 °F - 28.4 °F 81% 30.66 in 6.2 mi SE 2.3 mph - N/A   Unknown
10:43 AM 39.2 °F 37.0 °F 28.4 °F 65% 30.66 in - SE 3.5 mph - N/A   Clear
11:50 AM 41 °F - 28 °F 48% 30.68 in 31 mi East 3.5 mph - -  
11:50 AM 41.0 °F 39.0 °F 28.4 °F 61% 30.66 in - East 3.5 mph - N/A   Clear
12:50 PM 42.8 °F 40.1 °F 30.2 °F 61% 30.66 in - NE 4.6 mph - N/A   Clear
1:50 PM 42.8 °F 39.3 °F 33.8 °F 70% 30.63 in - North 5.8 mph - N/A   Clear
2:50 PM 44 °F - 33 °F 54% 30.63 in 25 mi North 4.6 mph - -  
2:50 PM 44.6 °F 42.2 °F 32.0 °F 61% 30.63 in 6.2 mi North 4.6 mph - N/A   Unknown
3:50 PM 42.8 °F 40.1 °F 33.8 °F 70% 30.63 in 6.2 mi North 4.6 mph - N/A   Unknown
4:50 PM 41.0 °F 39.0 °F 33.8 °F 76% 30.63 in - West 3.5 mph - N/A   Clear
5:50 PM 36 °F - 33 °F 82% 30.63 in 16 mi WNW 1.2 mph - -  
5:50 PM 37.4 °F - 32.0 °F 81% 30.63 in - WNW 1.2 mph - N/A   Clear
6:50 PM 32.0 °F 28.7 °F 28.4 °F 87% 30.63 in - South 3.5 mph - N/A   Clear
7:50 PM 30.2 °F 25.4 °F 26.6 °F 86% 30.63 in - WSW 4.6 mph - N/A   Clear
8:50 PM 32 °F - 26 °F 69% 30.65 in 18 mi WSW 8.1 mph - -  
8:50 PM 32.0 °F 24.8 °F 26.6 °F 80% 30.63 in 6.2 mi WSW 8.1 mph - N/A   Unknown
9:50 PM 32.0 °F 26.4 °F 23.0 °F 69% 30.66 in 6.2 mi WSW 5.8 mph - N/A   Unknown
10:50 PM 32.0 °F 27.5 °F 23.0 °F 69% 30.63 in 6.2 mi SSW 4.6 mph - N/A   Unknown
11:50 PM 29 °F - 23 °F 69% 30.65 in 22 mi WSW 3.5 mph - -  
11:50 PM 28.4 °F 24.6 °F 23.0 °F 80% 30.63 in 6.2 mi WSW 3.5 mph - N/A   Unknown